Time,TemperatureF,DewpointF,PressureIn,WindDirection,WindDirectionDegrees,WindSpeedMPH,WindSpeedGustMPH,Humidity,HourlyPrecipIn,Conditions,Clouds,dailyrainin,SoftwareType,DateUTC
2013-11-25 00:20:00,19.9,9.0,30.32,NNW,336,3.0,5.0,62,0.00,,,0.00,weatherlink.com 1.10,2013-11-25 05:20:00,
2013-11-25 00:36:00,19.7,9.0,30.31,NNW,337,4.0,5.0,62,0.00,,,0.00,weatherlink.com 1.10,2013-11-25 05:36:00,
2013-11-25 00:51:00,19.4,9.0,30.31,NNW,340,3.0,6.0,65,0.00,,,0.00,weatherlink.com 1.10,2013-11-25 05:51:00,
2013-11-25 01:06:00,18.9,10.0,30.32,NNW,340,0.0,3.0,67,0.00,,,0.00,weatherlink.com 1.10,2013-11-25 06:06:00,
2013-11-25 01:21:00,18.6,10.0,30.32,NE,38,0.0,6.0,68,0.00,,,0.00,weatherlink.com 1.10,2013-11-25 06:21:00,
2013-11-25 01:36:00,18.2,10.0,30.33,NE,38,0.0,3.0,69,0.00,,,0.00,weatherlink.com 1.10,2013-11-25 06:36:00,
2013-11-25 01:51:00,17.9,9.0,30.34,NE,38,0.0,1.0,69,0.00,,,0.00,weatherlink.com 1.10,2013-11-25 06:51:00,
2013-11-25 02:06:00,17.1,9.0,30.33,NE,38,0.0,1.0,69,0.00,,,0.00,weatherlink.com 1.10,2013-11-25 07:06:00,
2013-11-25 02:36:00,16.4,8.0,30.32,NE,38,0.0,3.0,70,0.00,,,0.00,weatherlink.com 1.10,2013-11-25 07:36:00,
2013-11-25 02:51:00,15.9,8.0,30.33,NE,38,3.0,3.0,71,0.00,,,0.00,weatherlink.com 1.10,2013-11-25 07:51:00,
2013-11-25 03:07:00,15.4,9.0,30.34,NE,38,2.0,3.0,74,0.00,,,0.00,weatherlink.com 1.10,2013-11-25 08:07:00,
2013-11-25 03:21:00,15.0,9.0,30.34,NE,38,1.0,3.0,76,0.00,,,0.00,weatherlink.com 1.10,2013-11-25 08:21:00,
2013-11-25 03:36:00,15.1,9.0,30.34,NE,38,0.0,3.0,78,0.00,,,0.00,weatherlink.com 1.10,2013-11-25 08:36:00,
2013-11-25 03:51:00,15.2,9.0,30.35,NE,38,0.0,3.0,77,0.00,,,0.00,weatherlink.com 1.10,2013-11-25 08:51:00,
2013-11-25 04:06:00,14.5,9.0,30.36,NE,38,0.0,2.0,78,0.00,,,0.00,weatherlink.com 1.10,2013-11-25 09:06:00,
2013-11-25 04:21:00,14.1,8.0,30.36,NE,38,0.0,2.0,77,0.00,,,0.00,weatherlink.com 1.10,2013-11-25 09:21:00,
2013-11-25 04:36:00,14.2,8.0,30.37,NE,38,2.0,4.0,77,0.00,,,0.00,weatherlink.com 1.10,2013-11-25 09:36:00,
2013-11-25 04:51:00,14.7,8.0,30.38,NE,38,0.0,4.0,76,0.00,,,0.00,weatherlink.com 1.10,2013-11-25 09:51:00,
2013-11-25 05:06:00,14.5,8.0,30.38,NE,38,1.0,3.0,75,0.00,,,0.00,weatherlink.com 1.10,2013-11-25 10:06:00,
2013-11-25 05:21:00,14.1,8.0,30.38,NE,38,0.0,2.0,75,0.00,,,0.00,weatherlink.com 1.10,2013-11-25 10:21:00,
2013-11-25 05:36:00,13.8,7.0,30.39,NE,38,0.0,2.0,75,0.00,,,0.00,weatherlink.com 1.10,2013-11-25 10:36:00,
2013-11-25 05:51:00,13.4,7.0,30.39,NE,38,0.0,1.0,75,0.00,,,0.00,weatherlink.com 1.10,2013-11-25 10:51:00,
2013-11-25 06:06:00,13.1,7.0,30.39,NE,38,0.0,0.0,77,0.00,,,0.00,weatherlink.com 1.10,2013-11-25 11:06:00,
2013-11-25 06:22:00,13.2,7.0,30.39,NE,38,0.0,2.0,77,0.00,,,0.00,weatherlink.com 1.10,2013-11-25 11:22:00,
2013-11-25 06:37:00,13.3,7.0,30.40,NE,38,1.0,2.0,76,0.00,,,0.00,weatherlink.com 1.10,2013-11-25 11:37:00,
2013-11-25 06:52:00,13.0,7.0,30.40,NE,38,0.0,2.0,77,0.00,,,0.00,weatherlink.com 1.10,2013-11-25 11:52:00,
2013-11-25 07:07:00,13.1,7.0,30.41,NE,38,0.0,2.0,77,0.00,,,0.00,weatherlink.com 1.10,2013-11-25 12:07:00,
2013-11-25 07:22:00,13.0,7.0,30.41,NE,38,2.0,2.0,77,0.00,,,0.00,weatherlink.com 1.10,2013-11-25 12:22:00,
2013-11-25 07:37:00,12.6,7.0,30.42,NE,38,0.0,0.0,78,0.00,,,0.00,weatherlink.com 1.10,2013-11-25 12:37:00,
2013-11-25 07:52:00,12.7,7.0,30.42,NE,38,0.0,1.0,79,0.00,,,0.00,weatherlink.com 1.10,2013-11-25 12:52:00,
2013-11-25 08:07:00,13.5,9.0,30.43,NE,38,0.0,2.0,81,0.00,,,0.00,weatherlink.com 1.10,2013-11-25 13:07:00,
2013-11-25 08:22:00,15.2,10.0,30.44,NE,38,0.0,0.0,80,0.00,,,0.00,weatherlink.com 1.10,2013-11-25 13:22:00,
2013-11-25 08:37:00,16.9,11.0,30.43,NE,38,0.0,0.0,76,0.00,,,0.00,weatherlink.com 1.10,2013-11-25 13:37:00,
2013-11-25 08:52:00,18.4,11.0,30.44,NE,38,0.0,2.0,72,0.00,,,0.00,weatherlink.com 1.10,2013-11-25 13:52:00,
2013-11-25 09:38:00,21.6,12.0,30.44,West,278,2.0,7.0,67,0.00,,,0.00,weatherlink.com 1.10,2013-11-25 14:38:00,
2013-11-25 09:53:00,22.6,12.0,30.44,ENE,59,0.0,5.0,65,0.00,,,0.00,weatherlink.com 1.10,2013-11-25 14:53:00,
2013-11-25 10:08:00,23.7,13.0,30.42,SW,234,0.0,5.0,63,0.00,,,0.00,weatherlink.com 1.10,2013-11-25 15:08:00,
2013-11-25 10:22:00,24.2,12.0,30.42,NW,309,5.0,6.0,61,0.00,,,0.00,weatherlink.com 1.10,2013-11-25 15:22:00,
2013-11-25 10:38:00,25.0,13.0,30.41,SW,235,0.0,5.0,61,0.00,,,0.00,weatherlink.com 1.10,2013-11-25 15:38:00,
2013-11-25 10:53:00,26.2,14.0,30.41,West,270,1.0,6.0,59,0.00,,,0.00,weatherlink.com 1.10,2013-11-25 15:53:00,
2013-11-25 11:08:00,26.8,13.0,30.40,SW,221,3.0,9.0,57,0.00,,,0.00,weatherlink.com 1.10,2013-11-25 16:08:00,
2013-11-25 11:22:00,27.5,14.0,30.40,WSW,252,0.0,8.0,57,0.00,,,0.00,weatherlink.com 1.10,2013-11-25 16:22:00,
2013-11-25 11:38:00,27.4,13.0,30.40,WSW,238,5.0,9.0,55,0.00,,,0.00,weatherlink.com 1.10,2013-11-25 16:38:00,
2013-11-25 11:52:00,27.8,14.0,30.39,WSW,248,6.0,9.0,56,0.00,,,0.00,weatherlink.com 1.10,2013-11-25 16:52:00,
2013-11-25 12:07:00,28.4,14.0,30.39,SW,216,7.0,11.0,55,0.00,,,0.00,weatherlink.com 1.10,2013-11-25 17:07:00,
2013-11-25 12:23:00,29.0,15.0,30.38,SW,215,5.0,12.0,56,0.00,,,0.00,weatherlink.com 1.10,2013-11-25 17:23:00,
2013-11-25 12:38:00,29.6,15.0,30.37,SW,232,4.0,9.0,55,0.00,,,0.00,weatherlink.com 1.10,2013-11-25 17:38:00,
2013-11-25 12:53:00,30.0,15.0,30.36,SW,234,4.0,11.0,53,0.00,,,0.00,weatherlink.com 1.10,2013-11-25 17:53:00,
2013-11-25 13:08:00,29.8,14.0,30.36,WSW,240,10.0,14.0,52,0.00,,,0.00,weatherlink.com 1.10,2013-11-25 18:08:00,
2013-11-25 13:22:00,30.0,14.0,30.35,West,272,9.0,12.0,51,0.00,,,0.00,weatherlink.com 1.10,2013-11-25 18:22:00,
2013-11-25 13:38:00,30.9,15.0,30.34,SSW,195,7.0,12.0,51,0.00,,,0.00,weatherlink.com 1.10,2013-11-25 18:38:00,
2013-11-25 13:53:00,31.3,14.0,30.33,SSW,202,4.0,10.0,49,0.00,,,0.00,weatherlink.com 1.10,2013-11-25 18:53:00,
2013-11-25 14:08:00,31.5,13.0,30.33,SW,228,4.0,13.0,47,0.00,,,0.00,weatherlink.com 1.10,2013-11-25 19:08:00,
2013-11-25 14:23:00,31.6,13.0,30.32,WSW,240,3.0,9.0,47,0.00,,,0.00,weatherlink.com 1.10,2013-11-25 19:23:00,
2013-11-25 14:38:00,31.9,14.0,30.32,South,170,4.0,12.0,47,0.00,,,0.00,weatherlink.com 1.10,2013-11-25 19:38:00,
2013-11-25 14:53:00,32.3,14.0,30.31,SW,219,7.0,10.0,48,0.00,,,0.00,weatherlink.com 1.10,2013-11-25 19:53:00,
2013-11-25 15:08:00,32.5,14.0,30.30,SW,225,7.0,14.0,47,0.00,,,0.00,weatherlink.com 1.10,2013-11-25 20:08:00,
2013-11-25 15:24:00,32.4,14.0,30.31,SW,230,4.0,11.0,47,0.00,,,0.00,weatherlink.com 1.10,2013-11-25 20:24:00,
2013-11-25 15:38:00,31.5,14.0,30.31,WSW,240,6.0,10.0,48,0.00,,,0.00,weatherlink.com 1.10,2013-11-25 20:38:00,
2013-11-25 15:53:00,30.9,14.0,30.31,SW,228,6.0,10.0,49,0.00,,,0.00,weatherlink.com 1.10,2013-11-25 20:53:00,
2013-11-25 16:09:00,30.7,14.0,30.31,SW,223,5.0,9.0,50,0.00,,,0.00,weatherlink.com 1.10,2013-11-25 21:09:00,
2013-11-25 16:24:00,30.4,14.0,30.33,SW,223,3.0,6.0,50,0.00,,,0.00,weatherlink.com 1.10,2013-11-25 21:24:00,
2013-11-25 16:38:00,30.0,14.0,30.33,SW,229,3.0,6.0,51,0.00,,,0.00,weatherlink.com 1.10,2013-11-25 21:38:00,
2013-11-25 16:53:00,29.6,14.0,30.33,SSW,205,3.0,5.0,53,0.00,,,0.00,weatherlink.com 1.10,2013-11-25 21:53:00,
2013-11-25 17:08:00,29.4,14.0,30.32,SSW,203,5.0,6.0,54,0.00,,,0.00,weatherlink.com 1.10,2013-11-25 22:08:00,
2013-11-25 17:23:00,29.4,14.0,30.32,SSW,203,4.0,7.0,53,0.00,,,0.00,weatherlink.com 1.10,2013-11-25 22:23:00,
2013-11-25 17:38:00,29.5,15.0,30.32,SSW,210,7.0,9.0,54,0.00,,,0.00,weatherlink.com 1.10,2013-11-25 22:38:00,
2013-11-25 17:53:00,29.7,14.0,30.32,SW,225,9.0,11.0,53,0.00,,,0.00,weatherlink.com 1.10,2013-11-25 22:53:00,
2013-11-25 18:09:00,29.9,15.0,30.32,SW,215,4.0,9.0,53,0.00,,,0.00,weatherlink.com 1.10,2013-11-25 23:09:00,
2013-11-25 18:25:00,30.1,15.0,30.32,WSW,253,8.0,10.0,53,0.00,,,0.00,weatherlink.com 1.10,2013-11-25 23:25:00,
2013-11-25 18:39:00,30.3,14.0,30.32,SW,227,8.0,12.0,52,0.00,,,0.00,weatherlink.com 1.10,2013-11-25 23:39:00,
2013-11-25 18:54:00,30.3,15.0,30.33,SW,229,7.0,11.0,53,0.00,,,0.00,weatherlink.com 1.10,2013-11-25 23:54:00,
2013-11-25 19:09:00,30.3,15.0,30.32,SW,217,7.0,13.0,54,0.00,,,0.00,weatherlink.com 1.10,2013-11-26 00:09:00,
2013-11-25 19:39:00,30.3,15.0,30.33,SW,234,8.0,12.0,54,0.00,,,0.00,weatherlink.com 1.10,2013-11-26 00:39:00,
2013-11-25 19:54:00,30.2,15.0,30.32,West,275,6.0,10.0,54,0.00,,,0.00,weatherlink.com 1.10,2013-11-26 00:54:00,
2013-11-25 20:09:00,30.0,15.0,30.32,SSW,207,5.0,10.0,54,0.00,,,0.00,weatherlink.com 1.10,2013-11-26 01:09:00,
2013-11-25 20:24:00,30.0,15.0,30.32,WSW,248,8.0,10.0,55,0.00,,,0.00,weatherlink.com 1.10,2013-11-26 01:24:00,
2013-11-25 20:39:00,29.9,15.0,30.32,SW,229,6.0,12.0,54,0.00,,,0.00,weatherlink.com 1.10,2013-11-26 01:39:00,
2013-11-25 20:53:00,29.9,15.0,30.32,SW,231,5.0,11.0,54,0.00,,,0.00,weatherlink.com 1.10,2013-11-26 01:53:00,
2013-11-25 21:24:00,29.9,15.0,30.30,WSW,250,3.0,9.0,53,0.00,,,0.00,weatherlink.com 1.10,2013-11-26 02:24:00,
2013-11-25 21:39:00,29.9,15.0,30.30,West,259,9.0,12.0,54,0.00,,,0.00,weatherlink.com 1.10,2013-11-26 02:39:00,
2013-11-25 21:54:00,29.9,15.0,30.30,WSW,238,8.0,11.0,53,0.00,,,0.00,weatherlink.com 1.10,2013-11-26 02:54:00,
2013-11-25 22:09:00,29.9,15.0,30.30,WSW,240,10.0,12.0,53,0.00,,,0.00,weatherlink.com 1.10,2013-11-26 03:09:00,
2013-11-25 22:23:00,29.8,14.0,30.29,SSW,213,7.0,11.0,53,0.00,,,0.00,weatherlink.com 1.10,2013-11-26 03:23:00,
2013-11-25 22:39:00,29.7,15.0,30.30,WSW,238,3.0,11.0,54,0.00,,,0.00,weatherlink.com 1.10,2013-11-26 03:39:00,
2013-11-25 22:54:00,29.7,15.0,30.30,West,262,7.0,14.0,54,0.00,,,0.00,weatherlink.com 1.10,2013-11-26 03:54:00,
2013-11-25 23:09:00,29.7,15.0,30.30,SW,231,3.0,10.0,54,0.00,,,0.00,weatherlink.com 1.10,2013-11-26 04:09:00,
2013-11-25 23:24:00,29.7,15.0,30.30,WSW,254,5.0,9.0,54,0.00,,,0.00,weatherlink.com 1.10,2013-11-26 04:24:00,
2013-11-25 23:40:00,29.7,14.0,30.30,WSW,258,7.0,9.0,53,0.00,,,0.00,weatherlink.com 1.10,2013-11-26 04:40:00,
2013-11-25 23:54:00,29.7,14.0,30.30,SW,234,3.0,8.0,53,0.00,,,0.00,weatherlink.com 1.10,2013-11-26 04:54:00,